Hourly Data Report for October 14, 2016

All times are specified in Local Standard Time (LST). Add 1 hour to adjust for Daylight Saving Time where and when it is observed.

KUGLUKTUK A
NUNAVUT

67°49'00.000" N
115°08'38.000" W
22.60 m
2300903
71938
YCO

Download Data

Hourly Data (October 2016)
Hourly Data Report for October 14, 2016
Temp Definition
°C
Dew Point Temp Definition
°C
Rel Hum Definition
%
Wind Dir Definition
10's deg

Wind Spd Definition
km/h
Visibility Definition
km
Stn Press Definition
kPa
Hmdx Definition


Wind Chill Definition


Weather Definition


TIME
00:00 Legend Double Dagger -8.7 -10.1 90 24 19 3.2 101.28   -16 Snow Grains
01:00 Legend Double Dagger -8.7 -10.2 89 24 23 4.8 101.25   -17 Fog
02:00 Legend Double Dagger -9.1 -10.7 88 24 23 8.1 101.23   -17 Snow Grains,Blowing Snow
03:00 Legend Double Dagger -9.1 -10.9 87 24 22 12.9 101.20   -17 Snow Grains,Blowing Snow
04:00 Legend Double Dagger -9.2 -11.3 85 24 25 8.1 101.17   -18 Snow Grains,Blowing Snow
05:00 Legend Double Dagger -9.1 -11.2 85 24 23 9.7 101.12   -17 Snow Grains,Blowing Snow
06:00 Legend Double Dagger -8.7 -11.2 82 24 25 12.9 101.10   -17 Snow Grains,Blowing Snow
07:00 Legend Double Dagger -8.4 -10.6 84 24 26 3.2 101.06   -17 Snow Grains,Blowing Snow
08:00 Legend Double Dagger -8.4 -10.3 86 24 25 9.7 101.03   -17 Snow,Blowing Snow
09:00 Legend Double Dagger -8.0 -9.8 87 24 19 9.7 101.05   -15 Snow
10:00 Legend Double Dagger -7.5 -9.2 88 26 24 8.1 101.03   -15 Snow
11:00 Legend Double Dagger -6.8 -8.8 86 26 24 12.9 101.03   -14 Snow,Blowing Snow
12:00 Legend Double Dagger -6.2 -8.6 83 28 19 19.3 101.04   -13 Snow
13:00 Legend Double Dagger -6.2 -9.0 81 28 15 24.1 101.03   -12 Snow
14:00 Legend Double Dagger -6.4 -9.3 80 26 10 24.1 101.03   -11 Snow
15:00 Legend Double Dagger -6.1 -9.5 77 29 16 24.1 100.99   -12 LegendNANA
16:00 Legend Double Dagger -6.5 -9.9 77 27 10 24.1 100.98   -11 LegendNANA
17:00 Legend Double Dagger -7.2 -9.8 82 25 13 24.1 100.99   -13 Mostly Cloudy
18:00 Legend Double Dagger -7.9 -10.5 82 25 15 24.1 100.95   -14 LegendNANA
19:00 Legend Double Dagger -7.3 -10.0 81 25 22 19.3 100.91   -15 Snow
20:00 Legend Double Dagger -8.0 -9.7 88 25 21 19.3 100.89   -16 Snow
21:00 Legend Double Dagger -7.6 -9.7 85 24 20 24.1 100.87   -15 LegendNANA
22:00 Legend Double Dagger -7.2 -9.9 81 25 20 16.1 100.84   -14 Snow
23:00 Legend Double Dagger -7.4 -10.4 79 25 18 19.3 100.82   -14 Snow

Notes on Data Quality.

Legend

  • E = Estimated
  • M = Missing
  • NA = Not Available
  • ‡ = Partner data that is not subject to review by the National Climate Archives
Date modified: